Volver al catálogo

DIRECTV 9S

ActivoComunicacionesGEO
NORAD 29494·PAYLOAD·🇺🇸 United States

Lanzado Oct 13, 2006 desde Guiana Space Centre

Loading…

TLE

ActualizadoSource: Space-Track

Época: Sep 14, 2026, 13:20 UTC

1 29494U 06043A   26257.55561828  .00000033  00000-0  00000-0 0  9999
2 29494   2.6468  79.7304 0006133 195.2393 132.1062  0.99095527 52278

Sigue DIRECTV 9S en tiempo real con AllMySat

Download on the App Store